Regional Weather Roundup
Issued by NWS

Home | Current Version | Previous Version | Graphics & Text | Print | Product List | Glossary On
Versions: 1 2 3 4 5 6 7 8 9 10 11 12 13 14 15 16 17 18 19 20 21 22 23 24 25 26 27 28 29 30 31 32 33 34 35 36 37 38 39 40 41 42 43 44 45 46 47 48 49 50
000
ASUS43 KMKX 191521
RWRWI

WISCONSIN REGIONAL WEATHER ROUNDUP
NATIONAL WEATHER SERVICE MILWAUKEE/SULLIVAN WI
1000 AM CDT SAT APR 19 2014

NOTE: "FAIR" INDICATES FEW OR NO CLOUDS BELOW 12,000 FEET WITH NO
SIGNIFICANT WEATHER AND/OR OBSTRUCTIONS TO VISIBILITY.

WIZ001-002-006>008-014>016-023>028-191600-
NORTHWEST WISCONSIN

CITY           SKY/WX    TMP DP  RH WIND       PRES   REMARKS
SUPERIOR ARPT  CLOUDY    34  32  92 E9        30.12F WCI  27
ASHLAND        CLOUDY    38  24  57 SE3       30.19F
HAYWARD        CLOUDY    39  23  52 S15G23    30.16R WCI  31
SIREN          CLOUDY    41  26  56 S15       30.11F
RICE LAKE      CLOUDY    42  26  52 SE18      30.19S
LADYSMITH      SUNNY     42  26  52 SE17G24   30.24F
EAU CLAIRE     MOSUNNY   46  25  43 S18G26    30.21F
MENOMONIE      MOSUNNY   45  26  47 SE15G24   30.21F
NEW RICHMOND   CLOUDY    46  29  52 S18G25    30.14F
OSCEOLA        CLOUDY    45  31  58 SE17G25   30.15F
$$

WIZ003>005-009-010-017-018-191600-
NORTH CENTRAL WISCONSIN

CITY           SKY/WX    TMP DP  RH WIND       PRES   REMARKS
WOODRUFF       MOSUNNY   42  23  47 SE17G26   30.26F
RHINELANDER    SUNNY     38  22  52 SE12G18   30.30R WCI  30
EAGLE RIVER    SUNNY     39  20  46 SE14G20   30.28S WCI  31
LAND O LAKES   SUNNY     39  22  51 SE10G21   30.29S WCI  32
PHILLIPS       PTSUNNY   39  23  52 SE12G20   30.24S WCI  32
TOMAHAWK       SUNNY     39  24  53 SE6G20    30.29S
MEDFORD        SUNNY     38  26  61 SE15G22   30.27F WCI  30
MERRILL        SUNNY     40  26  57 CALM      30.30S
$$

WIZ029-030-035-036-043>047-191600-
CENTRAL WISCONSIN

CITY           SKY/WX    TMP DP  RH WIND       PRES   REMARKS
WAUSAU         SUNNY     41  25  53 SE16      30.29F
MOSINEE        SUNNY     39  28  65 SE16      30.32F WCI  30
MARSHFIELD     SUNNY     42  26  53 SE15      30.28F
STEVENS POINT  SUNNY     40  26  56 SE16      30.33F WCI  32
WAUPACA        SUNNY     45  28  53 SE13      30.37F
WAUTOMA        SUNNY     44  26  49 SE13      30.36F
WISC RAPIDS    SUNNY     44  24  45 SE14G20   30.33F
CAMP DOUGLAS   MOSUNNY   46  24  43 SE18G24   30.30F
$$

WIZ011>013-019>022-031-037>040-048>050-191600-
NORTHEAST WISCONSIN

CITY           SKY/WX    TMP DP  RH WIND       PRES   REMARKS
ANTIGO         SUNNY     37  28  70 SE20G28   30.32F WCI  26
STURGEON BAY   SUNNY     39  28  65 SE14      30.41F WCI  31
GREEN BAY      SUNNY     40  31  70 SE14      30.40F WCI  32
MANITOWOC      MOSUNNY   36  30  79 SE15      30.42F WCI  27
APPLETON       MOSUNNY   39  28  65 SE16      30.38F WCI  30
CLINTONVILLE   SUNNY     41  30  65 SE14G20   30.38F
OSHKOSH        MOSUNNY   42  29  59 SE12      30.37F
$$

WIZ032>034-041-042-053>061-191600-
SOUTHWEST WISCONSIN

CITY           SKY/WX    TMP DP  RH WIND       PRES   REMARKS
LA CROSSE      MOSUNNY   50  26  39 SE16      30.27F
SPARTA         SUNNY     46  22  38 SE13G20   30.29F
VIROQUA        FAIR      46  27  47 SE20      30.27F
BOSCOBEL       MOSUNNY   50  25  37 SE8       30.32F
PRAIRIE DU CHI SUNNY     48  26  41 SE14      30.30F
PLATTEVILLE    FAIR      48  29  47 SE14      30.32F
$$

WIZ056-057-062-063-064-067-068-191600-
SOUTH CENTRAL WISCONSIN

CITY           SKY/WX    TMP DP  RH WIND       PRES   REMARKS
BARABOO/DELLS  MOSUNNY   45  25  45 SE9       30.34S
LONE ROCK      MOSUNNY   48  28  46 SE10      30.33F
WATERTOWN      SUNNY     44  31  60 E13       30.36F
MADISON        MOSUNNY   47  29  49 SE12G21   30.35F
MIDDLETON      FAIR      48  26  42 SE12G20   30.35S
MONROE         MOSUNNY   47  31  53 E13       30.32F
JANESVILLE     SUNNY    N/A N/A N/A SE17      30.35F
$$

WIZ051-052-058>065-066-070>072-191600-
SOUTHEAST WISCONSIN

CITY           SKY/WX    TMP DP  RH WIND       PRES   REMARKS
MILWAUKEE      PTSUNNY   41  32  70 E12       30.42F
WAUKESHA       SUNNY     39  30  70 E13       30.40S WCI  32
MILWAUKEE/TIMM SUNNY     39  28  65 E12G20    30.42F WCI  32
RACINE         SUNNY     39  32  76 SE12      30.43F WCI  32
BURLINGTON     SUNNY     43  33  66 SW13      30.38F
KENOSHA        SUNNY     41  33  73 E13       30.40F
FOND DU LAC    MOSUNNY   43  28  55 SE17      30.37F
SHEBOYGAN      MOSUNNY   38  29  70 SE12      30.41F WCI  30
WEST BEND      MOSUNNY   39  30  70 E14       30.39F WCI  31
JUNEAU         SUNNY     42  27  55 E15       30.38S
$$

LSZ147-162-191600-
LAKE SUPERIOR

STATION/POSITION TIME  TEMP    WIND        PRES    WAVE
                       AIR SEA DIR/SP/G            HT/PER
                 (UTC) (F)     (DEG/KT/KT) (MB)    (FT/S)
DEVILS ISLAND    1500   33     100/ 18/ 20 1023.7F
PORT WING        1400   35      50/  4/  6 1022.0
SAXON HARBOR     1420          160/  9/ 18 1022.0F
$$

LMZ867-665-643>646-191600-
LAKE MICHIGAN

STATION/POSITION TIME  TEMP    WIND        PRES    WAVE
                       AIR SEA DIR/SP/G            HT/PER
                 (UTC) (F)     (DEG/KT/KT) (MB)    (FT/S)
NORTHPORT PIER   1400   33     110/ 11/ 14 1030.8F
SISTER BAY       1409   42     160/ 10/ 15   N/A
KEWAUNEE LAKESHO 1400   35     110/  8/ 10 1031.3F
SHEBOYGAN LAKESH 1500   35     120/  8/  9 1031.1F
PORT WASHINGTON  1400   36      90/  8/ 11 1030.8
MILWAUKEE LAKESH 1500   36     120/  9/ 11   N/A
KENOSHA   LAKESH 1500   37     100/  6/  9   N/A
$$

TC  - TEMPERATURE IN CELSIUS
VSB - VISIBILITY IN STATUTE MILES
WCI - WIND CHILL INDEX
HX  - HEAT INDEX




USA.gov is the U.S. government's official web portal to all federal, state and local government web resources and services.